Regional Weather Roundup
Issued by NWS Binghamton, NY

Home | Current Version | Previous Version | Text Only | Print | Product List | Glossary On
Versions: 1 2 3 4 5 6 7 8 9 10 11 12 13 14 15 16 17 18 19 20 21 22 23 24 25 26 27
000
ASUS41 KBGM 270610
RWRBGM

REGIONAL WEATHER ROUNDUP
NATIONAL WEATHER SERVICE BINGHAMTON NY
200 AM EDT SAT AUG 27 2016

Note: "fair" indicates few or no clouds below 12,000 feet with no
significant weather and/or obstructions to visibility.

* = Station(s) that does not report precipitation, such as rain,
snow, etc, also no thunder or fog.

NYZ009-015>018-022>025-036-037-044>046-055>057-062-270700
...Central New York...

CITY           SKY/WX    TMP DP  RH WIND       PRES   REMARKS
Binghamton     FAIR      66  63  90 NW3       30.19S
Cortland       FAIR      61  61 100 CALM      30.19F
Dansville      FAIR      64  60  87 SE3       30.20S
Elmira         FAIR      63  61  93 W3        30.18S
Ithaca         FAIR      62  61  96 E5        30.19S
Hamilton       MOCLDY    61  57  88 CALM      30.19S
Hornell        CLEAR     61  57  88 CALM      30.25S
Monticello     FAIR      63  61  94 CALM      30.19R
Norwich        CLOUDY    59  57  94 CALM      30.19S FOG
Oneonta        CLEAR     63  63 100 CALM      30.21R
Penn Yan       FAIR      69  66  90 S6        30.18S
Rome           FAIR      62  61  96 E3        30.17R
Sidney         CLOUDY    63  63 100 CALM      30.19R FOG
Syracuse       FAIR      66  62  87 CALM      30.15R
$$

PAZ038>040-043-044-047-048-072-270700
...Northeast Pennsylvania...

CITY           SKY/WX    TMP DP  RH WIND       PRES   REMARKS
Hazleton       FAIR      61  61 100 CALM      30.21S FOG
Scranton       FAIR      66  62  87 E3        30.17R
$$
&&
KEY
WCI = Wind Chill Index
VSB = Visibility
HX  = Heat Index
$$




USA.gov is the U.S. government's official web portal to all federal, state and local government web resources and services.